{"data":{"norad_id":65284,"epoch":"2026-09-20T13:55:43.528224Z","epoch_age_seconds":110585,"freshness":"FRESH","line1":"1 65284U 25184M   26263.58036491  .00019342  00000+0  59939-3 0  9996","line2":"2 65284  97.2843 311.5034 0000295 188.7406 171.3831 15.33473307 60733","mean_motion":15.33473307,"eccentricity":2.95e-5,"inclination_deg":97.2843,"raan_deg":311.5034,"arg_perigee_deg":188.7406,"mean_anomaly_deg":171.3831,"bstar":0.00059939,"rev_number":6073,"period_min":93.904471204467,"perigee_km":465.25706797673,"apogee_km":465.66084013802,"semimajor_km":6843.5959540574,"source":"CELESTRAK","updated_at":"2026-09-21T09:00:35.565878Z"}}